W4SNA-3 Weather Reports


time (UTC)temp
C
wind
direction
speed
KPH
gust
KPH
rain 1hr
cm
rain 24hr
cm
rain mn
cm
humidity
%
barometer
mb
20260504130515 12 0 0.0 3.2 0.00 0.00 0.00 56 1014.5
20260504110550 7 0 0.0 3.2 0.00 0.00 0.00 66 1014.4
20260504100523 7 0 0.0 1.6 0.00 0.00 0.00 62 1014.3
20260504081523 7 0 0.0 1.6 0.00 0.00 0.00 63 1014.4
20260504081024 7 0 0.0 1.6 0.00 0.00 0.00 62 1014.5
20260504080523 7 0 0.0 1.6 0.00 0.00 0.00 62 1014.5
20260504070334 7 0 0.0 4.8 0.00 0.00 0.00 61 1014.6
20260504060219 8 208 1.6 6.4 0.00 0.00 0.00 53 1014.8
20260504050741 7 282 1.6 6.4 0.00 0.00 0.00 56 1014.1
20260504050219 7 314 3.2 6.4 0.00 0.00 0.00 56 1014.1
20260504045719 7 3 1.6 6.4 0.00 0.00 0.00 57 1014.1
20260504045219 8 322 3.2 6.4 0.00 0.00 0.00 55 1014.1
20260504044740 8 318 1.6 6.4 0.00 0.00 0.00 55 1014.1
20260504044222 8 316 1.6 9.7 0.00 0.00 0.00 54 1014.1
20260504043719 8 304 3.2 9.7 0.00 0.00 0.00 55 1014.1
20260504043227 8 255 3.2 6.4 0.00 0.00 0.00 54 1014.2
20260504042719 8 318 1.6 6.4 0.00 0.00 0.00 54 1014.2
20260504042219 8 316 1.6 6.4 0.00 0.00 0.00 54 1014.3
20260504041719 8 359 1.6 6.4 0.00 0.00 0.00 50 1014.1
20260504041219 8 0 0.0 6.4 0.00 0.00 0.00 52 1014.2
20260504040719 8 0 0.0 4.8 0.00 0.00 0.00 52 1014.2
20260504040219 8 0 0.0 8.0 0.00 0.00 0.00 50 1014.3
20260504035740 8 0 0.0 8.0 0.00 0.00 0.00 50 1014.4
20260504035236 8 0 0.0 6.4 0.00 0.00 0.00 48 1014.4
20260504034719 8 0 0.0 4.8 0.00 0.00 0.00 49 1014.5
20260504034219 8 0 0.0 4.8 0.00 0.00 0.00 50 1014.6
20260504033731 8 0 0.0 4.8 0.00 0.00 0.00 47 1014.6
20260504033219 8 0 0.0 4.8 0.00 0.00 0.00 47 1014.4
20260504032719 8 0 0.0 4.8 0.00 0.00 0.00 46 1014.4
20260504031945 8 0 0.0 8.0 0.00 0.00 0.00 47 1014.3
20260504031445 8 110 1.6 8.0 0.00 0.00 0.00 48 1014.3
20260504030958 8 0 0.0 4.8 0.00 0.00 0.00 46 1014.2
20260504030444 8 0 0.0 6.4 0.00 0.00 0.00 47 1014.4
20260504025945 8 123 1.6 6.4 0.00 0.00 0.00 47 1014.3
20260504025445 7 0 0.0 4.8 0.00 0.00 0.00 48 1014.3
20260504024959 7 0 0.0 3.2 0.00 0.00 0.00 49 1014.3
20260504024444 7 0 0.0 3.2 0.00 0.00 0.00 49 1014.4
20260504023624 7 0 0.0 4.8 0.00 0.00 0.00 50 1014.5
20260504023124 7 0 0.0 3.2 0.00 0.00 0.00 52 1014.5
20260504022624 7 0 0.0 3.2 0.00 0.00 0.00 52 1014.5
20260504022124 7 0 0.0 3.2 0.00 0.00 0.00 49 1014.6
20260504021624 7 0 0.0 3.2 0.00 0.00 0.00 48 1014.3
20260504021124 7 0 0.0 3.2 0.00 0.00 0.00 49 1014.2
20260504020624 7 0 0.0 3.2 0.00 0.00 0.00 50 1014.3
20260504020138 7 0 0.0 3.2 0.00 0.00 0.00 51 1014.3
20260504015624 7 0 0.0 3.2 0.00 0.00 0.00 53 1014.2
20260504014711 7 252 1.6 4.8 0.00 0.00 0.00 52 1014.3
20260504014213 7 252 1.6 4.8 0.00 0.00 0.00 51 1013.9
20260504013711 7 252 1.6 4.8 0.00 0.00 0.00 51 1013.8
20260504013211 7 252 1.6 3.2 0.00 0.00 0.00 51 1013.8
20260504012727 7 0 0.0 4.8 0.00 0.00 0.00 50 1013.8
20260504012211 8 251 1.6 4.8 0.00 0.00 0.00 51 1013.7
20260504011711 8 251 1.6 4.8 0.00 0.00 0.00 49 1013.7
20260504011211 8 251 1.6 4.8 0.00 0.00 0.00 49 1013.7
20260504010739 8 251 1.6 4.8 0.00 0.00 0.00 48 1013.6
20260504010211 8 251 1.6 4.8 0.00 0.00 0.00 49 1013.5
20260504005739 8 251 1.6 4.8 0.00 0.00 0.00 48 1013.5
20260504005238 8 251 1.6 4.8 0.00 0.00 0.00 48 1013.5
20260504004730 8 251 1.6 4.8 0.00 0.00 0.00 48 1013.4
20260504004211 8 251 1.6 4.8 0.00 0.00 0.00 46 1013.4
20260504003753 9 251 1.6 4.8 0.00 0.00 0.00 46 1013.5
20260504003211 9 0 0.0 4.8 0.00 0.00 0.00 46 1013.5
20260504002712 9 251 1.6 4.8 0.00 0.00 0.00 46 1013.4
20260504001813 10 251 1.6 4.8 0.00 0.00 0.00 45 1013.5
20260504001314 10 251 1.6 4.8 0.00 0.00 0.00 44 1013.5
20260504000813 10 242 1.6 4.8 0.00 0.00 0.00 44 1013.5
20260504000323 10 233 1.6 4.8 0.00 0.00 0.00 44 1013.5
20260503235814 10 201 1.6 4.8 0.00 0.00 0.00 44 1013.6
20260503235313 11 0 0.0 4.8 0.00 0.00 0.00 45 1013.6
20260503234813 11 0 0.0 4.8 0.00 0.00 0.00 43 1013.6
20260503234313 11 0 0.0 3.2 0.00 0.00 0.00 42 1013.5
20260503233813 11 0 0.0 4.8 0.00 0.00 0.00 40 1013.5
20260503233313 11 0 0.0 4.8 0.00 0.00 0.00 40 1013.3
20260503232813 11 0 0.0 1.6 0.00 0.00 0.00 37 1013.2
20260503231947 12 0 0.0 3.2 0.00 0.00 0.00 35 1013.2
20260503231444 12 0 0.0 4.8 0.00 0.00 0.00 36 1013.2
20260503230946 12 0 0.0 4.8 0.00 0.00 0.00 38 1013.2
20260503230447 12 0 0.0 4.8 0.00 0.00 0.00 37 1013.2
20260503225944 12 0 0.0 4.8 0.00 0.00 0.00 37 1013.2
20260503225444 12 0 0.0 4.8 0.00 0.00 0.00 36 1013.2
20260503224945 12 0 0.0 4.8 0.00 0.00 0.00 35 1013.2
20260503224445 12 343 1.6 6.4 0.00 0.00 0.00 35 1013.2
20260503223945 12 338 1.6 6.4 0.00 0.00 0.00 37 1013.3
20260503223445 12 0 0.0 4.8 0.00 0.00 0.00 35 1013.3
20260503222945 12 0 0.0 4.8 0.00 0.00 0.00 36 1013.3
20260503222445 12 0 0.0 4.8 0.00 0.00 0.00 34 1013.4
20260503221946 13 0 0.0 4.8 0.00 0.00 0.00 34 1013.3
20260503221444 13 0 0.0 4.8 0.00 0.00 0.00 34 1013.4
20260503220946 13 18 1.6 4.8 0.00 0.00 0.00 34 1013.4
20260503220445 13 0 0.0 4.8 0.00 0.00 0.00 33 1013.4
20260503220011 13 0 0.0 4.8 0.00 0.00 0.00 34 1013.4
20260503215445 13 0 0.0 4.8 0.00 0.00 0.00 34 1013.4
20260503214944 13 0 0.0 3.2 0.00 0.00 0.00 34 1013.5
20260503214445 13 0 0.0 6.4 0.00 0.00 0.00 35 1013.6
20260503213947 13 19 1.6 6.4 0.00 0.00 0.00 31 1013.6
20260503213445 13 0 0.0 3.2 0.00 0.00 0.00 34 1013.7
20260503212948 13 0 0.0 6.4 0.00 0.00 0.00 31 1013.7
20260503212444 14 0 0.0 9.7 0.00 0.00 0.00 33 1013.7
20260503211944 14 0 0.0 9.7 0.00 0.00 0.00 34 1013.7
20260503211444 14 0 0.0 4.8 0.00 0.00 0.00 35 1013.7
20260503210945 15 0 0.0 4.8 0.00 0.00 0.00 33 1013.8
20260503210446 15 0 0.0 4.8 0.00 0.00 0.00 31 1013.8
20260503205944 15 0 0.0 4.8 0.00 0.00 0.00 30 1013.9
20260503205445 15 0 0.0 11.3 0.00 0.00 0.00 30 1013.9
20260503205011 15 325 1.6 11.3 0.00 0.00 0.00 29 1013.8
20260503204444 15 300 1.6 8.0 0.00 0.00 0.00 30 1014.0
20260503203904 15 36 1.6 6.4 0.00 0.00 0.00 29 1014.0
20260503203404 15 249 1.6 8.0 0.00 0.00 0.00 29 1014.1
20260503202904 15 0 0.0 8.0 0.00 0.00 0.00 30 1014.1
20260503202404 15 13 1.6 6.4 0.00 0.00 0.00 32 1014.0
20260503201705 15 0 0.0 6.4 0.00 0.00 0.00 31 1014.2
20260503201205 15 0 0.0 6.4 0.00 0.00 0.00 31 1014.2
20260503200705 16 0 0.0 6.4 0.00 0.00 0.00 30 1014.4
20260503195845 15 335 1.6 9.7 0.00 0.00 0.00 31 1014.4
20260503195417 15 0 0.0 8.0 0.00 0.00 0.00 29 1014.5
20260503194841 15 346 1.6 11.3 0.00 0.00 0.00 29 1014.5
20260503194341 15 65 3.2 11.3 0.00 0.00 0.00 29 1014.6
20260503193400 15 105 1.6 6.4 0.00 0.00 0.00 30 1014.6
20260503192900 15 0 0.0 6.4 0.00 0.00 0.00 33 1014.6
20260503192400 15 0 0.0 8.0 0.00 0.00 0.00 34 1014.8
20260503191900 15 0 0.0 8.0 0.00 0.00 0.00 30 1014.8
20260503191331 15 0 0.0 9.7 0.00 0.00 0.00 33 1015.0
20260503190830 15 10 1.6 9.7 0.00 0.00 0.00 28 1015.0
20260503190330 15 353 1.6 8.0 0.00 0.00 0.00 30 1015.1
20260503185830 15 294 1.6 8.0 0.00 0.00 0.00 29 1015.0
20260503185330 15 270 3.2 8.0 0.00 0.00 0.00 34 1014.9
20260503184530 15 58 1.6 6.4 0.00 0.00 0.00 29 1015.1
20260503184030 15 357 1.6 9.7 0.00 0.00 0.00 30 1015.4
20260503183530 15 338 3.2 9.7 0.00 0.00 0.00 26 1015.4
20260503183030 15 28 1.6 12.9 0.00 0.00 0.00 27 1015.4
20260503182530 15 353 3.2 12.9 0.00 0.00 0.00 29 1015.5
20260503182030 15 265 1.6 8.0 0.00 0.00 0.00 32 1015.4
20260503181531 14 352 1.6 9.7 0.00 0.00 0.00 31 1015.4
20260503181031 14 222 3.2 9.7 0.00 0.00 0.00 34 1015.5
20260503180530 14 53 3.2 8.0 0.00 0.00 0.00 28 1015.6
20260503180030 14 71 1.6 4.8 0.00 0.00 0.00 35 1015.6
20260503175530 14 55 1.6 6.4 0.00 0.00 0.00 35 1015.4
20260503175030 14 315 1.6 9.7 0.00 0.00 0.00 35 1015.6
20260503174531 15 46 1.6 9.7 0.00 0.00 0.00 30 1015.6
20260503174031 14 340 1.6 6.4 0.00 0.00 0.00 35 1015.5
20260503173530 14 315 1.6 12.9 0.00 0.00 0.00 33 1015.5
20260503173029 13 315 1.6 12.9 0.00 0.00 0.00 35 1015.8
20260503172029 13 353 1.6 11.3 0.00 0.00 0.00 32 1015.9
20260503171531 14 0 0.0 8.0 0.00 0.00 0.00 32 1015.9
20260503171029 14 316 4.8 8.0 0.00 0.00 0.00 30 1016.1
20260503170530 13 289 3.2 12.9 0.00 0.00 0.00 32 1016.1
20260503150532 11 0 0.0 11.3 0.00 0.00 0.00 41 1016.5